Weather Roundup
Issued by NWS

Home | Current Version | Previous Version | Text Only | Print | Product List | Glossary On
Versions: 1 2 3 4 5 6 7 8 9 10 11 12 13 14 15 16 17 18 19 20 21 22 23 24 25 26 27 28 29 30 31 32 33 34 35 36 37 38 39 40 41 42 43 44 45 46 47 48 49 50
041
NZUS93 KARX 251210
HRRWXR

CURRENT HOURLY OBSERVATIONS ACROSS
MUCH OF THE UPPER MISSISSIPPI VALLEY
NATIONAL WEATHER SERVICE LA CROSSE WI
700 AM CDT WED APR 25 2018


...SOUTHEAST MINNESOTA...


CITY           SKY/WX    TMP DP  RH WIND       PRES   REMARKS
ROCHESTER      FAIR      36  29  75 N10       30.20S WCI  28
ROCHESTER/MAYO FAIR      37  28  71 NW3       30.21S
WINONA         FAIR      37  32  81 N3        30.21R
AUSTIN         FAIR      34  28  80 CALM      30.20R
ALBERT LEA     FAIR      36  27  69 N6        30.21S WCI  31
DODGE CENTER   FAIR      34  28  80 N8        30.21S WCI  27
PRESTON        FAIR      35  32  87 N7        30.19S WCI  29
OWATONNA       FAIR      36  27  69 N6        30.23R WCI  31
FARIBAULT      NOT AVBL
$$

...ELSEWHERE IN MINNESOTA...


CITY           SKY/WX    TMP DP  RH WIND       PRES   REMARKS
MINNEAPOLIS    FAIR      36  25  64 N7        30.26S WCI  30
INTNL FALLS    FAIR      25  22  88 S3        30.21F
DULUTH         FAIR      30  22  72 N3        30.24S
RED WING       FAIR      34  25  69 CALM      30.24R
REDWOOD FALLS  CLEAR     33  27  78 N5        30.27S WCI  29
MANKATO        FAIR      35  28  75 N9        30.25S WCI  28
WORTHINGTON    CLEAR     32  29  88 N9        30.27R WCI  24
FAIRMONT       CLEAR     35  29  78 NW8       30.25R WCI  29
$$

...SOUTHWEST WISCONSIN...


CITY           SKY/WX    TMP DP  RH WIND       PRES   REMARKS
LA CROSSE      FAIR      40  35  83 N7        30.21R
PRAIRIE DU CHI FAIR      43  33  69 N5        30.17R
BOSCOBEL       FAIR      39  34  82 CALM      30.18R
LONE ROCK      FAIR      44  37  76 N8        30.17R
PLATTEVILLE    FAIR      41  36  82 N8        30.14S
FORT MC COY    FAIR      35  33  95 CALM      30.22R
CAMP DOUGLAS   PTCLDY    32  32 100 W5        30.19R WCI  27
MAUSTON-NEW LI FAIR      37  35  95 NW5       30.19R WCI  33
VIROQUA        FAIR      36  36 100 N10       30.17S WCI  29
WIS DELLS      FAIR      40  36  85 N7        30.17R
$$

...ELSEWHERE IN WISCONSIN...


CITY           SKY/WX    TMP DP  RH WIND       PRES   REMARKS
MILWAUKEE      FAIR      42  35  76 N9        30.12S
MADISON        FAIR      39  32  76 N7        30.15R WCI  34
GREEN BAY      FAIR      37  30  75 N13       30.18R WCI  29
EAU CLAIRE     FAIR      34  26  72 N5        30.23R WCI  30
BLACK RVR FLS  FAIR      28  28 100 CALM      30.21S
MEDFORD        FAIR      30  28  90 N5        30.20R WCI  25
WAUSAU         FAIR      33  28  81 N9        30.18R WCI  25
WIS RAPIDS     FAIR      36  30  79 N10       30.20R WCI  28
MARSHFIELD     FAIR      34  30  85 N8        30.18R WCI  27
RICE LAKE      FAIR      32  27  80 CALM      30.26R
$$

...NORTHEAST IOWA...


CITY           SKY/WX    TMP DP  RH WIND       PRES   REMARKS
WATERLOO       FAIR      38  35  89 N10       30.18R WCI  31
DUBUQUE        FAIR      43  31  62 NE6       30.14R
DECORAH        FAIR      39  32  75 N9        30.16S WCI  33
MASON CITY     CLEAR     35  30  82 N8        30.22R WCI  29
CHARLES CITY   FAIR      36  36 100 N7        30.19R WCI  30
OELWEIN        FAIR      39  37  93 N9G15     30.17R WCI  33
$$

...ELSEWHERE IN IOWA...


CITY           SKY/WX    TMP DP  RH WIND       PRES   REMARKS
DES MOINES     CLOUDY    48  36  63 N12       30.17R
IOWA CITY      FAIR      48  35  60 N9        30.15R
FORT DODGE     CLOUDY    38  32  79 N7        30.22R WCI  33
MARSHALLTOWN   CLOUDY    41  36  82 N9        30.17R
CEDAR RAPIDS   FAIR      46  36  68 N14       30.13R
$$

...NORTHERN ILLINOIS...


CITY           SKY/WX    TMP DP  RH WIND       PRES   REMARKS
CHICAGO-OHARE  FAIR      44  32  62 N14       30.09R
CHICAGO-MIDWAY PTSUNNY   43  34  70 N17G23    30.09R
MOLINE         FAIR      49  32  52 NE16      30.12R
ROCKFORD       MOCLDY    44  33  65 NE12      30.14R
PEORIA         FAIR      47  34  60 NE13G29   30.09R
$$

NOTE: "FAIR" INDICATES FEW OR NO CLOUDS BELOW 12,000 FEET WITH NO
SIGNIFICANT WEATHER AND/OR OBSTRUCTIONS TO VISIBILITY. WIND
SPEEDS ARE IN MILES-PER-HOUR.




USA.gov is the U.S. government's official web portal to all federal, state and local government web resources and services.